TimeEDT,TemperatureF,Dew PointF,Humidity,Sea Level PressureIn,VisibilityMPH,Wind Direction,Wind SpeedMPH,Gust SpeedMPH,PrecipitationIn,Events,Conditions,WindDirDegrees,DateUTC
12:58 AM,63.0,53.8,72,29.84,10.0,WNW,4.6,-,N/A,,Overcast,290,2014-04-22 04:58:00
1:58 AM,59.7,55.2,85,29.83,10.0,SSW,5.8,-,0.00,,Light Drizzle,210,2014-04-22 05:58:00
2:48 AM,60.8,55.4,82,29.81,10.0,WSW,5.8,-,N/A,,Overcast,240,2014-04-22 06:48:00
2:58 AM,60.8,55.4,82,29.81,10.0,WSW,5.8,-,0.00,,Light Drizzle,240,2014-04-22 06:58:00
3:08 AM,60.8,55.4,82,29.80,6.0,SW,6.9,-,N/A,Rain,Light Rain,230,2014-04-22 07:08:00
3:18 AM,59.0,57.2,94,29.80,10.0,SW,8.1,-,N/A,,Light Drizzle,220,2014-04-22 07:18:00
3:38 AM,59.0,57.2,94,29.79,10.0,SW,5.8,-,N/A,,Overcast,220,2014-04-22 07:38:00
3:58 AM,58.5,56.1,92,29.79,10.0,SW,5.8,-,0.01,,Mostly Cloudy,230,2014-04-22 07:58:00
4:08 AM,57.2,55.4,94,29.78,9.0,SW,5.8,-,N/A,,Mostly Cloudy,230,2014-04-22 08:08:00
4:28 AM,57.2,55.4,94,29.78,10.0,SW,5.8,-,N/A,,Mostly Cloudy,230,2014-04-22 08:28:00
4:58 AM,58.8,55.6,89,29.77,10.0,WSW,9.2,-,N/A,,Mostly Cloudy,240,2014-04-22 08:58:00
5:18 AM,59.0,55.4,88,29.77,10.0,WSW,8.1,-,N/A,,Light Drizzle,240,2014-04-22 09:18:00
5:38 AM,59.0,55.4,88,29.77,10.0,WSW,8.1,-,N/A,,Mostly Cloudy,240,2014-04-22 09:38:00
5:58 AM,59.0,55.4,88,29.76,10.0,SW,8.1,-,0.00,,Mostly Cloudy,230,2014-04-22 09:58:00
6:18 AM,59.0,55.4,88,29.76,10.0,WSW,8.1,-,N/A,,Mostly Cloudy,240,2014-04-22 10:18:00
6:38 AM,59.0,55.4,88,29.76,10.0,WSW,6.9,-,N/A,,Overcast,240,2014-04-22 10:38:00
6:58 AM,59.0,55.9,90,29.76,5.0,WSW,8.1,-,N/A,,Overcast,240,2014-04-22 10:58:00
7:18 AM,59.0,55.4,88,29.77,5.0,West,6.9,-,N/A,,Overcast,260,2014-04-22 11:18:00
7:58 AM,59.5,56.3,89,29.77,5.0,West,9.2,-,N/A,,Overcast,280,2014-04-22 11:58:00
8:58 AM,60.8,55.4,82,29.79,6.0,WNW,8.1,-,N/A,,Overcast,300,2014-04-22 12:58:00
9:48 AM,62.6,57.2,82,29.78,10.0,WNW,12.7,17.3,N/A,,Scattered Clouds,300,2014-04-22 13:48:00
9:58 AM,62.6,55.8,78,29.79,10.0,West,13.8,-,N/A,,Mostly Cloudy,280,2014-04-22 13:58:00
10:58 AM,63.0,54.0,72,29.79,10.0,West,13.8,-,N/A,,Mostly Cloudy,280,2014-04-22 14:58:00
11:45 AM,59.0,51.8,77,29.82,10.0,WNW,13.8,-,N/A,,Mostly Cloudy,300,2014-04-22 15:45:00
11:55 AM,58.8,50.9,75,29.83,10.0,NW,17.3,20.7,N/A,,Scattered Clouds,310,2014-04-22 15:55:00
11:58 AM,58.8,50.9,75,29.83,10.0,NW,13.8,20.7,N/A,,Mostly Cloudy,320,2014-04-22 15:58:00
12:08 PM,59.0,50.0,72,29.83,10.0,NW,15.0,-,N/A,,Mostly Cloudy,320,2014-04-22 16:08:00
12:18 PM,59.0,50.0,72,29.83,10.0,WNW,15.0,-,N/A,,Partly Cloudy,300,2014-04-22 16:18:00
12:58 PM,60.4,48.0,64,29.83,10.0,NW,15.0,-,N/A,,Partly Cloudy,310,2014-04-22 16:58:00
1:58 PM,63.7,42.1,45,29.81,10.0,WNW,15.0,24.2,N/A,,Clear,290,2014-04-22 17:58:00
2:48 PM,64.4,35.6,34,29.81,10.0,NW,18.4,25.3,N/A,,Clear,320,2014-04-22 18:48:00
2:51 PM,64.4,35.6,34,29.81,10.0,West,16.1,25.3,N/A,,Clear,280,2014-04-22 18:51:00
2:58 PM,64.4,35.2,34,29.81,10.0,West,18.4,25.3,N/A,,Clear,280,2014-04-22 18:58:00
3:58 PM,63.5,31.3,30,29.82,10.0,WNW,18.4,27.6,N/A,,Clear,290,2014-04-22 19:58:00
4:58 PM,62.4,33.1,33,29.82,10.0,West,19.6,27.6,N/A,,Clear,270,2014-04-22 20:58:00
5:58 PM,61.5,32.9,34,29.83,10.0,NW,15.0,26.5,N/A,,Clear,310,2014-04-22 21:58:00
6:58 PM,57.9,32.7,39,29.86,10.0,WNW,20.7,29.9,N/A,,Clear,290,2014-04-22 22:58:00
7:58 PM,54.1,31.5,42,29.90,10.0,NW,18.4,31.1,N/A,,Clear,310,2014-04-22 23:58:00
8:58 PM,51.1,31.6,47,29.93,10.0,NW,19.6,29.9,N/A,,Clear,310,2014-04-23 00:58:00
9:58 PM,48.7,30.6,50,29.95,10.0,NW,16.1,24.2,N/A,,Clear,320,2014-04-23 01:58:00
10:58 PM,46.6,30.2,53,29.96,10.0,NW,10.4,-,N/A,,Clear,320,2014-04-23 02:58:00
11:58 PM,45.3,30.4,56,29.97,10.0,NW,9.2,-,N/A,,Clear,320,2014-04-23 03:58:00